This is the latest recevied weather packets stored in our database for station/object OK1CBR-13. If no packets are shown the sender has not sent any weather packets the latest 10 day(s).
| Time | Temp. | Humidity | Pressure | Rain* | Wind** | Luminosity | Snow |
|---|---|---|---|---|---|---|---|
| 1777705053 | 12.78° C | 64% | 1026.6 hPa | - | - | - | - |
| 1777704452 | 12.22° C | 65% | 1026.6 hPa | - | - | - | - |
| 1777703853 | 11.67° C | 66% | 1026.6 hPa | - | - | - | - |
| 1777703252 | 11.11° C | 69% | 1026.7 hPa | - | - | - | - |
| 1777702653 | 10.56° C | 70% | 1026.6 hPa | - | - | - | - |
| 1777702053 | 10° C | 73% | 1026.5 hPa | - | - | - | - |
| 1777701453 | 8.89° C | 75% | 1026.6 hPa | - | - | - | - |
| 1777700853 | 8.33° C | 78% | 1026.6 hPa | - | - | - | - |
| 1777700252 | 8.33° C | 78% | 1026.6 hPa | - | - | - | - |
| 1777699653 | 7.78° C | 83% | 1026.5 hPa | - | - | - | - |
| 1777699053 | 7.22° C | 86% | 1026.5 hPa | - | - | - | - |
| 1777698453 | 6.67° C | 87% | 1026.5 hPa | - | - | - | - |
| 1777697853 | 6.67° C | 86% | 1026.5 hPa | - | - | - | - |
| 1777697253 | 6.67° C | 86% | 1026.5 hPa | - | - | - | - |
| 1777696053 | 6.11° C | 80% | 1026.4 hPa | - | - | - | - |
| 1777695453 | 6.11° C | 80% | 1026.4 hPa | - | - | - | - |
| 1777694853 | 6.11° C | 80% | 1026.4 hPa | - | - | - | - |
| 1777694256 | 6.11° C | 82% | 1026.4 hPa | - | - | - | - |
| 1777693651 | 6.11° C | 83% | 1026.4 hPa | - | - | - | - |
| 1777693051 | 6.11° C | 79% | 1026.4 hPa | - | - | - | - |
| 1777692451 | 6.67° C | 79% | 1026.4 hPa | - | - | - | - |
| 1777691851 | 6.67° C | 81% | 1026.4 hPa | - | - | - | - |
| 1777691251 | 6.67° C | 79% | 1026.4 hPa | - | - | - | - |
| 1777690654 | 6.67° C | 78% | 1026.4 hPa | - | - | - | - |
| 1777690051 | 7.22° C | 78% | 1026.5 hPa | - | - | - | - |
* Rain since midnight (hover to see other rain measurements)
** Current wind speed in m/s (hover to see current wind gust speed)